Weather History for KISP - August, 2013

Change the Weather History Date:

Sunday, August 25, 2013

  Actual Average Record
Temperature  
Mean Temperature 69 °F 72 °F  
Max Temperature 81 °F 79 °F 92 °F (1998)
Min Temperature 56 °F 64 °F 51 °F (1987)
Degree Days  
Heating Degree Days 0 0  
Month to date heating degree days 0 0  
Since 1 June heating degree days 12 40  
Since 1 July heating degree days 0 2  
Cooling Degree Days 4 7  
Month to date cooling degree days 177 208  
Year to date cooling degree days 787 648  
Since 1 June cooling degree days 755 624  
Growing Degree Days 18 (Base 50)    
Moisture  
Dew Point 56 °F    
Average Humidity 64    
Maximum Humidity 93    
Minimum Humidity 35    
Precipitation  
Precipitation 0.00 in 0.13 in 2.13 in (1985)
Month to date precipitation 2.51 3.27  
Year to date precipitation 28.35 30.43  
Snow  
Snow 0.00 in 0.00 in - ()
Month to date snowfall 0.0 0.0  
Since 1 July snowfall 0.0 0.0  
Snow Depth 0.00 in    
Sea Level Pressure  
Sea Level Pressure 30.31 in    
Wind  
Wind Speed 6 mph (SW)    
Max Wind Speed 15 mph    
Max Gust Speed 20 mph    
Visibility 10 miles    
Events      
T = Trace of Precipitation, MM = Missing Value Source: NWS Daily Summary

Daily Weather History Graph

Daily Weather History Graph

Search for Another Location

Airport or City:

Trip Planner

Search our weather history database for the weather conditions in past years. The results will help you decide how hot, cold, wet, or windy it might be!

Date:

Astronomy

Aug. 25, 2013 Rise Set
Actual Time 6:12 AM EDT 7:35 PM EDT
Civil Twilight 5:44 AM EDT 8:03 PM EDT
Nautical Twilight 5:09 AM EDT 8:38 PM EDT
Astronomical Twilight 4:33 AM EDT 9:14 PM EDT
Moon 10:02 PM EDT (8/25) 11:14 AM EDT (8/25)
Length of Visible Light 14h 19m
Length of Day
13h 22m
Waning Gibbous, 76% of the Moon is Illuminated
Aug 25
Waning Gibbous
Aug 28
Last Quarter
Sep 5
New
Sep 12
First Quarter
Sep 19
Full

Hourly Weather History & Observations

Time (EDT) Temp. Heat Index Dew Point Humidity Pressure Visibility Wind Dir Wind Speed Gust Speed Precip Events Conditions
12:56 AM 60.1 °F - 55.0 °F 83% 30.34 in 10.0 mi Calm Calm - N/A   Clear
1:56 AM 57.9 °F - 54.0 °F 87% 30.32 in 10.0 mi Calm Calm - N/A   Clear
2:56 AM 57.9 °F - 55.0 °F 90% 30.31 in 10.0 mi Calm Calm - N/A   Clear
3:56 AM 57.0 °F - 54.0 °F 89% 30.32 in 10.0 mi Calm Calm - N/A   Clear
4:56 AM 57.0 °F - 54.0 °F 89% 30.33 in 10.0 mi Calm Calm - N/A   Clear
5:56 AM 57.0 °F - 54.0 °F 89% 30.35 in 10.0 mi Calm Calm - N/A   Partly Cloudy
6:56 AM 59.0 °F - 57.0 °F 93% 30.37 in 10.0 mi Calm Calm - N/A   Scattered Clouds
7:56 AM 66.0 °F - 60.1 °F 81% 30.38 in 10.0 mi WNW 4.6 mph - N/A   Scattered Clouds
8:56 AM 71.1 °F - 60.1 °F 68% 30.37 in 10.0 mi WNW 3.5 mph - N/A   Mostly Cloudy
9:56 AM 73.9 °F - 57.9 °F 57% 30.37 in 10.0 mi WNW 6.9 mph - N/A   Mostly Cloudy
10:56 AM 77.0 °F - 57.9 °F 52% 30.37 in 10.0 mi Calm Calm - N/A   Scattered Clouds
11:56 AM 78.1 °F - 52.0 °F 40% 30.35 in 10.0 mi Variable 4.6 mph - N/A   Scattered Clouds
12:56 PM 79.0 °F - 59.0 °F 50% 30.32 in 10.0 mi South 6.9 mph - N/A   Scattered Clouds
1:56 PM 80.1 °F 80.1 °F 55.0 °F 42% 30.31 in 10.0 mi SSW 10.4 mph - N/A   Mostly Cloudy
2:56 PM 79.0 °F - 48.9 °F 35% 30.30 in 10.0 mi SSW 12.7 mph - N/A   Scattered Clouds
3:56 PM 79.0 °F - 53.1 °F 40% 30.30 in 10.0 mi SSW 11.5 mph - N/A   Scattered Clouds
4:56 PM 78.1 °F - 53.1 °F 42% 30.27 in 10.0 mi South 11.5 mph - N/A   Mostly Cloudy
5:56 PM 75.9 °F - 55.9 °F 50% 30.26 in 10.0 mi South 10.4 mph - N/A   Scattered Clouds
6:56 PM 73.9 °F - 57.0 °F 55% 30.24 in 10.0 mi SSW 9.2 mph - N/A   Scattered Clouds
7:56 PM 71.1 °F - 57.9 °F 63% 30.23 in 10.0 mi SW 9.2 mph - N/A   Scattered Clouds
8:56 PM 70.0 °F - 57.9 °F 65% 30.24 in 10.0 mi SW 8.1 mph - N/A   Mostly Cloudy
9:56 PM 70.0 °F - 55.0 °F 59% 30.24 in 10.0 mi SW 9.2 mph - N/A   Mostly Cloudy
10:56 PM 70.0 °F - 55.9 °F 61% 30.24 in 10.0 mi SW 6.9 mph - N/A   Mostly Cloudy
11:56 PM 70.0 °F - 57.9 °F 65% 30.23 in 10.0 mi SW 9.2 mph - N/A   Overcast